Location: Lafig�re
(44.4503°N, 4.0357°E)
Time: 16:34:36
(UTC+00:00)

ISS - Pass Details

Date: 24 September 2020
Orbit: 417 x 420 km, 51.6° (Epoch: 26 October)

Event Time Altitude Azimuth Distance (km) Brightness Sun altitude
Rises 16:33:40 0° 222° (SW) 2,352 1.0 10.4°
Reaches altitude 10° 16:35:48 10° 216° (SW) 1,493 -0.1 10.0°
Maximum altitude 16:39:01 45° 142° (SE) 582 -3.1 9.5°
Drops below altitude 10° 16:42:15 10° 69° (ENE) 1,503 -1.5 8.9°
Enters shadow 16:47:03 -8° 60° (ENE) 3,452 0.3 8.0°
Exits shadow 17:21:54 -79° 62° (ENE) 12,965 3.6 1.9°
